This is the latest recevied weather packets stored in our database for station/object N4TLC. If no packets are shown the sender has not sent any weather packets the latest 10 day(s).
| Time | Temp. | Humidity | Pressure | Rain* | Wind** | Luminosity | Snow |
|---|---|---|---|---|---|---|---|
| 1777895064 | 7.78° C | 88% | 1019.1 hPa | 0 mm | - | 36 W/m² | - |
| 1777894760 | 7.78° C | 90% | 1018.9 hPa | 0 mm | - | 40 W/m² | - |
| 1777894457 | 7.22° C | 91% | 1019 hPa | 0 mm | - | 35 W/m² | - |
| 1777894155 | 6.67° C | 91% | 1018.9 hPa | 0 mm | - | 33 W/m² | - |
| 1777893852 | 6.67° C | 91% | 1018.8 hPa | 0 mm | - | 32 W/m² | - |
| 1777893548 | 6.11° C | 91% | 1018.8 hPa | 0 mm | - | 29 W/m² | - |
| 1777893244 | 6.11° C | 91% | 1018.7 hPa | 0 mm | - | 26 W/m² | - |
| 1777892941 | 6.11° C | 91% | 1018.8 hPa | 0 mm | - | 24 W/m² | - |
| 1777892638 | 5.56° C | 91% | 1019 hPa | 0 mm | - | 22 W/m² | - |
| 1777892333 | 5.56° C | 91% | 1018.8 hPa | 0 mm | - | 19 W/m² | - |
| 1777892029 | 5.56° C | 91% | 1018.9 hPa | 0 mm | - | 17 W/m² | - |
| 1777891727 | 5.56° C | 90% | 1018.9 hPa | 0 mm | - | 14 W/m² | - |
| 1777891423 | 5.56° C | 89% | 1019 hPa | 0 mm | - | 11 W/m² | - |
| 1777891119 | 5.56° C | 89% | 1018.7 hPa | 0 mm | - | 8 W/m² | - |
| 1777890814 | 5.56° C | 89% | 1018.7 hPa | 0 mm | - | 6 W/m² | - |
| 1777890511 | 5.56° C | 89% | 1018.6 hPa | 0 mm | - | 4 W/m² | - |
| 1777890206 | 5.56° C | 89% | 1018.8 hPa | 0 mm | - | 2 W/m² | - |
| 1777889902 | 5.56° C | 89% | 1018.8 hPa | 0 mm | - | 1 W/m² | - |
| 1777889600 | 5.56° C | 88% | 1018.8 hPa | 0 mm | - | 0 W/m² | - |
| 1777889298 | 6.11° C | 88% | 1018.8 hPa | 0 mm | - | 0 W/m² | - |
| 1777888995 | 6.11° C | 88% | 1019 hPa | 0 mm | - | 0 W/m² | - |
| 1777888693 | 6.11° C | 88% | 1018.9 hPa | 0 mm | - | 0 W/m² | - |
| 1777888388 | 5.56° C | 87% | 1018.8 hPa | 0 mm | - | 0 W/m² | - |
| 1777888085 | 6.11° C | 87% | 1018.8 hPa | 0 mm | - | 0 W/m² | - |
| 1777887782 | 6.11° C | 86% | 1018.8 hPa | 0 mm | - | 0 W/m² | - |
* Rain latest hour (hover to see other rain measurements)
** Current wind speed in m/s (hover to see current wind gust speed)